Flag for United Kingdom Weather past 2 weeks in Aberdeen, Scotland, United Kingdom

Now
61 °F

Passing clouds.


Feels Like: 61 °F
Forecast: 55 / 64 °F
Wind: 13 mph from Southwest

Location: Aberdeen / Dyce

Current Time: Aug 5, 2015 at 11:48:28 AM

Latest Report: Aug 5, 2015 at 11:20 AM


Visibility: N/A

Pressure: 29.77 "Hg

Humidity: 68%

Dew point: 50 °F

Location of AberdeenLocation

Historic Weather in Aberdeen — Graph

°F

Aberdeen temperature yesterday

Maximum temperature yesterday: 63 °F (at 1:20 PM)
Minimum temperature yesterday: 54 °F (at 12:20 AM)
Average temperature yesterday: 58 °F

Past Weeks' High & Low Weather Summary

 TemperatureHumidityPressure
High70 °F (Aug 3, 2:50 PM)100% (Jul 28, 1:50 AM)30.04 "Hg (Jul 28, 1:50 AM)
Low43 °F (Jul 24, 2:50 AM)42% (Jul 23, 12:50 PM)29.47 "Hg (Aug 4, 10:50 AM)
Average55 °F75%29.77 "Hg
* Reported Jul 21 10:20 AM — Aug 5 10:50 AM, Aberdeen, Weather by CustomWeather, © 2015

Note: Actual official high and low records may vary slightly from our data, if they occured in-between our weather recording intervals... More about our weather records

Advertising

Aberdeen weather history for previous 24 hours

 ConditionsComfort  
Time TempWeatherWind HumidityBarometerVisibility
10:50 AM
Wed, Aug 5
59 °FPassing clouds.8 mph77%29.77 "HgN/A
10:20 AM59 °FSprinkles. Passing clouds.10 mph77%29.77 "HgN/A
9:50 AM57 °FScattered clouds.13 mph82%29.74 "HgN/A
9:20 AM57 °FScattered clouds.14 mph77%29.74 "HgN/A
8:50 AM59 °FScattered clouds.10 mph77%29.74 "HgN/A
8:20 AM57 °FPassing clouds.9 mph82%29.74 "HgN/A
7:50 AM55 °FPassing clouds.14 mph82%29.74 "HgN/A
7:20 AM55 °FPassing clouds.8 mph82%29.71 "HgN/A
6:50 AM55 °FPassing clouds.5 mph82%29.71 "HgN/A
6:20 AM55 °FPassing clouds.5 mph82%29.71 "HgN/A
5:20 AM55 °FPassing clouds.6 mph77%29.68 "HgN/A
4:50 AM55 °FPassing clouds.12 mph77%29.68 "HgN/A
4:20 AM55 °FCool.13 mph77%29.68 "HgN/A
3:50 AM55 °FCool.8 mph77%29.68 "HgN/A
3:20 AM54 °FCool.2 mph82%29.68 "HgN/A
2:50 AM55 °FPassing clouds.7 mph82%29.68 "HgN/A
2:20 AM55 °FPassing clouds.8 mph82%29.65 "HgN/A
1:50 AM57 °FPassing clouds.10 mph82%29.65 "HgN/A
1:20 AM57 °FPassing clouds.9 mph82%29.65 "HgN/A
12:50 AM57 °FPassing clouds.12 mph77%29.65 "HgN/A
12:20 AM57 °FPassing clouds.12 mph77%29.65 "HgN/A
11:50 PM
Tue, Aug 4
59 °FPassing clouds.13 mph77%29.65 "HgN/A
11:20 PM59 °FPassing clouds.13 mph77%29.62 "HgN/A
10:50 PM59 °FPassing clouds.16 mph77%29.62 "HgN/A
10:20 PM59 °FPassing clouds.13 mph77%29.62 "HgN/A
9:50 PM59 °FPartly sunny.9 mph77%29.62 "HgN/A
9:20 PM59 °FPartly sunny.8 mph77%29.62 "HgN/A
8:50 PM59 °FScattered clouds.6 mph77%29.59 "HgN/A
8:20 PM59 °FScattered clouds.10 mph82%29.59 "HgN/A
7:50 PM59 °FLight rain. Partly sunny.14 mph77%29.59 "HgN/A
7:20 PM59 °FScattered clouds.14 mph77%29.56 "HgN/A
6:50 PM61 °FScattered clouds.17 mph72%29.56 "HgN/A
6:20 PM59 °FScattered clouds.15 mph77%29.56 "HgN/A
5:50 PM61 °FScattered clouds.15 mph72%29.56 "HgN/A
5:20 PM63 °FBroken clouds.14 mph73%29.53 "HgN/A
4:50 PM61 °FPartly sunny.13 mph77%29.53 "HgN/A
4:20 PM61 °FSprinkles. Partly sunny.12 mph77%29.53 "HgN/A
3:50 PM63 °FSprinkles. Partly sunny.12 mph73%29.53 "HgN/A
3:20 PM63 °FScattered clouds.13 mph73%29.53 "HgN/A
2:50 PM63 °FBroken clouds.14 mph73%29.53 "HgN/A
2:20 PM61 °FPartly sunny.13 mph77%29.50 "HgN/A
1:50 PM63 °FPartly sunny.18 mph73%29.50 "HgN/A
1:20 PM63 °FScattered showers. Scattered clouds.17 mph77%29.47 "HgN/A
12:50 PM61 °FScattered showers. Partly sunny.17 mph83%29.47 "HgN/A
12:20 PM59 °FPartly sunny.16 mph82%29.50 "HgN/A
11:50 AM59 °FScattered showers. Partly sunny.18 mph82%29.50 "HgN/A
11:20 AM61 °FScattered clouds.18 mph77%29.47 "HgN/A
Weather by CustomWeather, © 2015

See weather overviewHow to use our weather pages